Abilene, TX

2:52 PM CST on December 09, 2019 (GMT -0600)
Abilene Regional

Weather History for KABI - May, 2019

Change the Weather History Date:

Thursday, May 16, 2019

  Actual Average Record
Temperature  
Mean Temperature 76 °F 73 °F  
Max Temperature 85 °F 85 °F 106 °F (2000)
Min Temperature 66 °F 62 °F 43 °F (1916)
Degree Days  
Heating Degree Days 0 0  
Month to date heating degree days 33 13  
Since 1 July heating degree days 2551 2555  
Cooling Degree Days 11 9  
Month to date cooling degree days 68 111  
Year to date cooling degree days 230 244  
Growing Degree Days 25 (Base 50)    
Moisture  
Dew Point 65 °F    
Average Humidity 74    
Maximum Humidity 93    
Minimum Humidity 55    
Precipitation  
Precipitation 0.00 in 0.10 in 2.01 in (2009)
Month to date precipitation 3.83 1.42  
Year to date precipitation 10.95 7.18  
Sea Level Pressure  
Sea Level Pressure 29.92 in    
Wind  
Wind Speed 11 mph (South)    
Max Wind Speed 18 mph    
Max Gust Speed 29 mph    
Visibility 9 miles    
Events      
T = Trace of Precipitation, MM = Missing Value Source: NWS Daily Summary

Daily Weather History Graph

Daily Weather History Graph

Search for Another Location

Airport or City:

Astronomy

May. 16, 2019 Rise Set
Actual Time 6:40 AM CDT 8:30 PM CDT
Civil Twilight 6:12 AM CDT 8:57 PM CDT
Nautical Twilight 5:40 AM CDT 9:30 PM CDT
Astronomical Twilight 5:05 AM CDT 10:05 PM CDT
Moon 6:23 PM CDT (5/16) 5:25 AM CDT (5/16)
Length of Visible Light 14h 44m
Length of Day
13h 50m
Waxing Gibbous, 94% of the Moon is Illuminated
May 16
Waxing Gibbous
May 18
Full
May 26
Last Quarter
Jun 3
New
Jun 10
First Quarter

Hourly Weather History & Observations

Time (CDT) Temp. Heat Index Dew Point Humidity Pressure Visibility Wind Dir Wind Speed Gust Speed Precip Events Conditions
12:52 AM 68.0 °F - 62.1 °F 81% 29.95 in 10.0 mi SSE 6.9 mph - N/A   Clear
1:52 AM 66.9 °F - 63.0 °F 87% 29.94 in 10.0 mi SSE 6.9 mph - N/A   Clear
2:52 AM 66.9 °F - 64.0 °F 90% 29.93 in 10.0 mi South 9.2 mph - N/A   Clear
3:52 AM 66.9 °F - 64.9 °F 93% 29.93 in 10.0 mi South 9.2 mph - N/A   Clear
4:52 AM 66.9 °F - 64.9 °F 93% 29.93 in 10.0 mi South 8.1 mph - N/A   Clear
5:52 AM 66.0 °F - 64.0 °F 93% 29.92 in 9.0 mi South 6.9 mph - N/A   Clear
6:52 AM 66.0 °F - 64.0 °F 93% 29.93 in 7.0 mi SSE 5.8 mph - N/A   Clear
7:52 AM 66.9 °F - 64.9 °F 93% 29.96 in 6.0 mi South 8.1 mph - N/A   Haze
8:39 AM 68.0 °F - 66.0 °F 93% 30.03 in 7.0 mi South 12.7 mph - N/A   Haze
8:52 AM 68.0 °F - 66.0 °F 93% 29.98 in 7.0 mi SSW 10.4 mph 19.6 mph N/A   Haze
9:52 AM 70.0 °F - 66.0 °F 87% 29.99 in 7.0 mi South 10.4 mph - N/A   Haze
10:01 AM 70.0 °F - 66.0 °F 87% 30.04 in 7.0 mi South 6.9 mph - N/A   Haze
10:21 AM 73.9 °F - 68.0 °F 82% 30.04 in 8.0 mi South 13.8 mph - N/A   Haze
10:48 AM 75.2 °F - 68.0 °F 78% 30.03 in 9.0 mi South 10.4 mph - N/A   Haze
10:52 AM 75.9 °F - 68.0 °F 76% 29.97 in 9.0 mi SSW 13.8 mph - N/A   Haze
11:52 AM 77.0 °F - 66.9 °F 71% 29.95 in 10.0 mi South 11.5 mph - N/A   Haze
12:05 PM 78.1 °F - 68.0 °F 71% 30.01 in 10.0 mi SSW 13.8 mph - N/A   Haze
12:12 PM 78.1 °F - 68.0 °F 71% 30.01 in 10.0 mi SSW 15.0 mph - N/A   Haze
12:19 PM 79.0 °F - 68.0 °F 69% 30.01 in 10.0 mi SSW 13.8 mph - N/A   Scattered Clouds
12:52 PM 80.1 °F 82.3 °F 66.9 °F 64% 29.93 in 10.0 mi South 11.5 mph 19.6 mph N/A   Partly Cloudy
1:52 PM 82.0 °F 84.5 °F 66.9 °F 60% 29.91 in 10.0 mi South 12.7 mph - N/A   Partly Cloudy
2:52 PM 82.9 °F 84.6 °F 64.9 °F 54% 29.89 in 10.0 mi SSE 15.0 mph 27.6 mph N/A   Partly Cloudy
3:52 PM 84.9 °F 87.1 °F 66.0 °F 53% 29.87 in 10.0 mi SSE 15.0 mph 21.9 mph N/A   Partly Cloudy
4:52 PM 82.0 °F 83.4 °F 64.0 °F 54% 29.84 in 10.0 mi SSE 16.1 mph - N/A   Partly Cloudy
5:52 PM 82.9 °F 84.4 °F 64.0 °F 53% 29.83 in 10.0 mi South 12.7 mph - N/A   Clear
6:52 PM 81.0 °F 82.7 °F 64.9 °F 58% 29.81 in 10.0 mi SSE 11.5 mph - N/A   Clear
7:52 PM 79.0 °F - 64.9 °F 62% 29.81 in 10.0 mi SE 11.5 mph - N/A   Clear
8:52 PM 75.0 °F - 66.0 °F 73% 29.82 in 10.0 mi SE 9.2 mph - N/A   Clear
9:52 PM 73.0 °F - 64.9 °F 76% 29.82 in 10.0 mi SE 10.4 mph - N/A   Clear
10:52 PM 73.0 °F - 64.9 °F 76% 29.82 in 10.0 mi SSE 13.8 mph - N/A   Clear
11:52 PM 72.0 °F - 64.9 °F 78% 29.81 in 10.0 mi SSE 13.8 mph - N/A   Clear